DLH8DS EDDM-EKCH

Flight info

Callsign DLH8DS
Flight time 1h 21m
Altitude 34000
Route INPUD2S INPUD Y102 UPALA M726 LASGA DCT BKD DCT LUWIL DCT BERIM/N0430F350 DCT MAKEL N851 GESKA Z711 MONAK
Aircraft A320/M-SDE3FGHIRWY/LB1

Departure

Time 2026-05-06 19:39
Airport Munich Airport (EDDM)

Arrival

Time 2026-05-06 21:01
Airport Copenhagen Kastrup Airport (EKCH)
Time Latitude Longitude Altitude Speed Heading
2026-05-06 19:01 48.35456 11.79307 1486 ft 0 kts 263°
2026-05-06 19:01 48.35457 11.79311 1486 ft 0 kts 263°
2026-05-06 19:27 48.35457 11.79313 1485 ft 2 kts 263°
2026-05-06 19:27 48.35460 11.79350 1456 ft 4 kts 263°
2026-05-06 19:27 48.35463 11.79386 1477 ft 2 kts 263°
2026-05-06 19:28 48.35463 11.79422 1477 ft 4 kts 287°
2026-05-06 19:28 48.35451 11.79452 1471 ft 4 kts 340°
2026-05-06 19:28 48.35428 11.79459 1473 ft 2 kts 353°
2026-05-06 19:28 48.35425 11.79459 1474 ft 0 kts 353°
2026-05-06 19:31 48.35437 11.79457 1478 ft 7 kts 353°
2026-05-06 19:32 48.35517 11.79444 1475 ft 15 kts 354°
2026-05-06 19:32 48.35627 11.79425 1479 ft 16 kts 353°
2026-05-06 19:32 48.35740 11.79404 1478 ft 17 kts 352°
2026-05-06 19:32 48.35849 11.79384 1480 ft 12 kts 355°
2026-05-06 19:33 48.35903 11.79439 1485 ft 9 kts 75°
2026-05-06 19:33 48.35934 11.79501 1482 ft 7 kts 17°
2026-05-06 19:33 48.35975 11.79497 1481 ft 5 kts 348°
2026-05-06 19:33 48.36003 11.79490 1474 ft 3 kts 353°
2026-05-06 19:34 48.36034 11.79486 1484 ft 7 kts 355°
2026-05-06 19:34 48.36078 11.79480 1485 ft 6 kts 355°
2026-05-06 19:34 48.36145 11.79472 1485 ft 13 kts 355°
2026-05-06 19:34 48.36219 11.79529 1485 ft 12 kts 78°
2026-05-06 19:35 48.36229 11.79669 1485 ft 17 kts 83°
2026-05-06 19:35 48.36245 11.79891 1485 ft 23 kts 84°
2026-05-06 19:35 48.36265 11.80124 1481 ft 21 kts 83°
2026-05-06 19:35 48.36282 11.80334 1481 ft 19 kts 83°
2026-05-06 19:36 48.36294 11.80526 1475 ft 17 kts 84°
2026-05-06 19:36 48.36309 11.80697 1472 ft 16 kts 83°
2026-05-06 19:36 48.36322 11.80882 1485 ft 20 kts 83°
2026-05-06 19:36 48.36339 11.81111 1472 ft 20 kts 83°
2026-05-06 19:37 48.36380 11.81234 1473 ft 12 kts 12°
2026-05-06 19:37 48.36427 11.81154 1476 ft 11 kts 291°
2026-05-06 19:37 48.36459 11.81041 1477 ft 12 kts 292°
2026-05-06 19:37 48.36481 11.80961 1474 ft 13 kts 292°
2026-05-06 19:38 48.36529 11.80793 1479 ft 14 kts 294°
2026-05-06 19:38 48.36576 11.80666 1481 ft 14 kts 283°
2026-05-06 19:38 48.36563 11.80509 1476 ft 20 kts 263°
2026-05-06 19:38 48.36520 11.79951 1480 ft 88 kts 263°
2026-05-06 19:39 48.36424 11.78743 1476 ft 142 kts 263°
2026-05-06 19:39 48.36300 11.77158 1953 ft 151 kts 264°
2026-05-06 19:39 48.36171 11.75608 2774 ft 148 kts 263°
2026-05-06 19:39 48.36024 11.73980 3056 ft 171 kts 263°
2026-05-06 19:40 48.35877 11.72098 3339 ft 191 kts 265°
2026-05-06 19:40 48.35734 11.70036 3876 ft 203 kts 265°
2026-05-06 19:40 48.35654 11.67913 4685 ft 205 kts 279°
2026-05-06 19:40 48.36348 11.66032 5352 ft 221 kts 316°
2026-05-06 19:41 48.37820 11.64939 5738 ft 252 kts 338°
2026-05-06 19:41 48.39590 11.64336 6419 ft 266 kts 344°
2026-05-06 19:41 48.41443 11.63909 7154 ft 273 kts 346°
2026-05-06 19:41 48.43356 11.63500 7902 ft 280 kts 346°
2026-05-06 19:42 48.45311 11.63052 8643 ft 287 kts 346°
2026-05-06 19:42 48.47306 11.62547 9393 ft 294 kts 345°
2026-05-06 19:42 48.49341 11.61991 10114 ft 300 kts 344°
2026-05-06 19:42 48.51404 11.61405 10869 ft 303 kts 344°
2026-05-06 19:43 48.53486 11.60801 11599 ft 306 kts 344°
2026-05-06 19:43 48.55585 11.60182 12328 ft 310 kts 344°
2026-05-06 19:43 48.57728 11.59490 12797 ft 324 kts 343°
2026-05-06 19:43 48.60003 11.58842 12966 ft 347 kts 346°
2026-05-06 19:44 48.62430 11.58264 13461 ft 358 kts 347°
2026-05-06 19:44 48.64919 11.57720 14066 ft 362 kts 348°
2026-05-06 19:44 48.67432 11.57172 14650 ft 367 kts 348°
2026-05-06 19:44 48.69974 11.56606 15244 ft 371 kts 348°
2026-05-06 19:45 48.72537 11.56017 15835 ft 375 kts 349°
2026-05-06 19:45 48.75126 11.55407 16456 ft 378 kts 349°
2026-05-06 19:45 48.77741 11.54780 17056 ft 381 kts 349°
2026-05-06 19:45 48.80373 11.54141 17652 ft 386 kts 349°
2026-05-06 19:46 48.82142 11.53710 18031 ft 388 kts 350°
2026-05-06 19:46 48.84824 11.53057 18539 ft 392 kts 350°
2026-05-06 19:46 48.87530 11.52398 19047 ft 395 kts 350°
2026-05-06 19:46 48.90277 11.52020 19539 ft 399 kts
2026-05-06 19:47 48.93062 11.52298 20033 ft 402 kts
2026-05-06 19:47 48.95866 11.52614 20554 ft 404 kts
2026-05-06 19:47 48.98676 11.52939 21129 ft 404 kts
2026-05-06 19:47 49.01493 11.53270 21620 ft 407 kts
2026-05-06 19:48 49.04331 11.53605 22101 ft 410 kts
2026-05-06 19:48 49.07185 11.53940 22562 ft 413 kts
2026-05-06 19:48 49.10074 11.54278 23042 ft 417 kts
2026-05-06 19:48 49.12988 11.54616 23404 ft 422 kts
2026-05-06 19:49 49.15943 11.54961 23737 ft 427 kts
2026-05-06 19:49 49.18914 11.55309 24154 ft 427 kts
2026-05-06 19:49 49.21849 11.55648 24574 ft 429 kts
2026-05-06 19:49 49.24837 11.55989 24936 ft 432 kts
2026-05-06 19:50 49.27844 11.56335 25284 ft 435 kts
2026-05-06 19:50 49.30879 11.56690 25616 ft 438 kts
2026-05-06 19:50 49.33929 11.57050 25947 ft 441 kts
2026-05-06 19:50 49.36999 11.57409 26268 ft 444 kts
2026-05-06 19:51 49.40088 11.57767 26582 ft 448 kts
2026-05-06 19:51 49.43217 11.58129 26849 ft 452 kts
2026-05-06 19:51 49.46364 11.58498 27153 ft 455 kts
2026-05-06 19:51 49.49543 11.58874 27459 ft 458 kts
2026-05-06 19:52 49.52736 11.59257 27766 ft 461 kts
2026-05-06 19:52 49.55947 11.59644 28075 ft 464 kts
2026-05-06 19:52 49.59194 11.60032 28384 ft 467 kts
2026-05-06 19:52 49.62415 11.60414 28703 ft 470 kts
2026-05-06 19:53 49.65687 11.60798 28962 ft 474 kts
2026-05-06 19:53 49.68990 11.61187 29248 ft 477 kts
2026-05-06 19:53 49.72315 11.61574 29532 ft 480 kts
2026-05-06 19:53 49.75666 11.61968 29818 ft 483 kts
2026-05-06 19:54 49.79024 11.62363 30063 ft 485 kts
2026-05-06 19:54 49.82407 11.62765 30292 ft 488 kts
2026-05-06 19:54 49.85795 11.63171 30550 ft 489 kts
2026-05-06 19:54 49.89192 11.63582 30812 ft 490 kts
2026-05-06 19:55 49.92605 11.63996 31099 ft 491 kts
2026-05-06 19:55 49.96005 11.64406 31442 ft 490 kts
2026-05-06 19:55 49.99408 11.64813 31785 ft 490 kts
2026-05-06 19:55 50.02807 11.65222 32105 ft 490 kts
2026-05-06 19:56 50.06202 11.65631 32442 ft 489 kts
2026-05-06 19:56 50.09594 11.66040 32842 ft 487 kts
2026-05-06 19:56 50.12965 11.66450 33211 ft 486 kts
2026-05-06 19:56 50.16334 11.66855 33544 ft 485 kts
2026-05-06 19:57 50.19720 11.67258 33772 ft 486 kts
2026-05-06 19:57 50.23058 11.67666 33811 ft 478 kts
2026-05-06 19:57 50.29662 11.68488 33813 ft 473 kts
2026-05-06 19:58 50.36219 11.69282 33809 ft 472 kts
2026-05-06 19:58 50.42776 11.70072 33805 ft 472 kts
2026-05-06 19:59 50.49322 11.70881 33798 ft 472 kts
2026-05-06 19:59 50.55869 11.71695 33793 ft 472 kts
2026-05-06 20:00 50.62417 11.72492 33784 ft 472 kts
2026-05-06 20:00 50.68966 11.73287 33805 ft 472 kts
2026-05-06 20:01 50.75524 11.74105 33801 ft 472 kts
2026-05-06 20:01 50.82028 11.74924 33799 ft 471 kts
2026-05-06 20:02 50.88565 11.75737 33794 ft 471 kts
2026-05-06 20:02 50.95104 11.76552 33792 ft 471 kts
2026-05-06 20:03 51.01639 11.77365 33801 ft 470 kts
2026-05-06 20:03 51.08163 11.78191 33801 ft 470 kts
2026-05-06 20:04 51.14682 11.79010 33800 ft 469 kts
2026-05-06 20:04 51.21191 11.79835 33798 ft 469 kts
2026-05-06 20:05 51.27692 11.80660 33813 ft 468 kts
2026-05-06 20:05 51.34180 11.81479 33813 ft 466 kts
2026-05-06 20:06 51.40653 11.82309 33811 ft 466 kts
2026-05-06 20:06 51.47114 11.83134 33817 ft 465 kts
2026-05-06 20:07 51.53555 11.83962 33822 ft 463 kts
2026-05-06 20:07 51.59974 11.84792 33820 ft 462 kts
2026-05-06 20:08 51.66382 11.85627 33822 ft 461 kts
2026-05-06 20:08 51.72693 11.86443 33836 ft 460 kts
2026-05-06 20:09 51.79069 11.87270 33836 ft 458 kts
2026-05-06 20:09 51.85430 11.88089 33830 ft 458 kts
2026-05-06 20:10 51.91789 11.88908 33830 ft 458 kts
2026-05-06 20:10 51.98146 11.89743 33845 ft 457 kts
2026-05-06 20:11 52.04493 11.90583 33842 ft 457 kts
2026-05-06 20:11 52.10830 11.91423 33841 ft 456 kts
2026-05-06 20:12 52.17126 11.92248 33852 ft 456 kts
2026-05-06 20:12 52.23454 11.93073 33848 ft 455 kts
2026-05-06 20:13 52.29724 11.93900 33868 ft 455 kts
2026-05-06 20:13 52.36033 11.94738 33863 ft 454 kts
2026-05-06 20:14 52.42325 11.95584 33864 ft 453 kts
2026-05-06 20:14 52.48616 11.96437 33867 ft 453 kts
2026-05-06 20:15 52.54901 11.97283 33868 ft 452 kts
2026-05-06 20:15 52.61186 11.98117 33863 ft 452 kts
2026-05-06 20:16 52.67464 11.98955 33879 ft 452 kts
2026-05-06 20:16 52.73726 11.99807 33870 ft 451 kts
2026-05-06 20:17 52.79987 12.00658 33871 ft 451 kts
2026-05-06 20:17 52.85195 12.01361 33876 ft 451 kts
2026-05-06 20:18 52.91448 12.02212 33876 ft 451 kts
2026-05-06 20:18 52.97718 12.03076 33880 ft 451 kts
2026-05-06 20:19 53.03977 12.03930 33876 ft 451 kts
2026-05-06 20:19 53.10249 12.04791 33879 ft 451 kts
2026-05-06 20:20 53.16514 12.05664 33893 ft 452 kts
2026-05-06 20:20 53.22817 12.06542 33889 ft 456 kts
2026-05-06 20:21 53.29138 12.07416 33895 ft 455 kts
2026-05-06 20:21 53.35446 12.08288 33901 ft 454 kts
2026-05-06 20:22 53.41750 12.09164 33900 ft 454 kts
2026-05-06 20:22 53.48043 12.10046 33905 ft 453 kts
2026-05-06 20:23 53.54331 12.10938 33906 ft 453 kts
2026-05-06 20:23 53.60622 12.11831 33908 ft 453 kts
2026-05-06 20:24 53.66898 12.12717 33926 ft 452 kts
2026-05-06 20:24 53.73162 12.13594 33926 ft 451 kts
2026-05-06 20:25 53.79427 12.14482 33920 ft 451 kts
2026-05-06 20:25 53.85690 12.15386 33918 ft 451 kts
2026-05-06 20:26 53.88797 12.15832 33778 ft 445 kts
2026-05-06 20:26 53.91864 12.16273 33328 ft 440 kts
2026-05-06 20:26 53.94903 12.16711 32872 ft 435 kts
2026-05-06 20:26 53.97903 12.17142 32438 ft 430 kts
2026-05-06 20:27 54.00869 12.17568 32057 ft 424 kts
2026-05-06 20:27 54.03794 12.17988 31644 ft 419 kts
2026-05-06 20:27 54.06686 12.18406 31221 ft 415 kts
2026-05-06 20:27 54.09550 12.18817 30788 ft 411 kts
2026-05-06 20:28 54.12383 12.19223 30370 ft 406 kts
2026-05-06 20:28 54.15188 12.19629 29944 ft 403 kts
2026-05-06 20:28 54.17982 12.20037 29349 ft 402 kts
2026-05-06 20:28 54.20760 12.20441 28807 ft 399 kts
2026-05-06 20:29 54.23522 12.20841 28337 ft 395 kts
2026-05-06 20:29 54.26256 12.21237 27838 ft 393 kts
2026-05-06 20:29 54.28942 12.21630 27344 ft 390 kts
2026-05-06 20:29 54.31573 12.22014 26913 ft 386 kts
2026-05-06 20:30 54.34250 12.22402 26452 ft 384 kts
2026-05-06 20:30 54.39533 12.23183 25580 ft 377 kts
2026-05-06 20:30 54.42082 12.23561 25125 ft 376 kts
2026-05-06 20:31 54.44681 12.23942 24688 ft 374 kts
2026-05-06 20:31 54.47258 12.24317 24278 ft 370 kts
2026-05-06 20:31 54.49809 12.24689 23865 ft 368 kts
2026-05-06 20:31 54.52353 12.25063 23427 ft 366 kts
2026-05-06 20:32 54.54882 12.25438 22973 ft 363 kts
2026-05-06 20:32 54.57386 12.25808 22515 ft 360 kts
2026-05-06 20:32 54.59878 12.26174 22058 ft 358 kts
2026-05-06 20:32 54.62354 12.26542 21638 ft 356 kts
2026-05-06 20:33 54.64811 12.26906 21242 ft 353 kts
2026-05-06 20:33 54.67255 12.27270 20829 ft 351 kts
2026-05-06 20:33 54.69678 12.27630 20418 ft 348 kts
2026-05-06 20:33 54.72090 12.27991 20015 ft 347 kts
2026-05-06 20:34 54.74491 12.28352 19619 ft 345 kts
2026-05-06 20:34 54.76876 12.28704 19238 ft 343 kts
2026-05-06 20:34 54.79251 12.29056 18861 ft 341 kts
2026-05-06 20:34 54.81613 12.29413 18492 ft 340 kts
2026-05-06 20:35 54.83966 12.29772 18107 ft 338 kts
2026-05-06 20:35 54.86300 12.30126 17718 ft 336 kts
2026-05-06 20:35 54.88626 12.30476 17356 ft 333 kts
2026-05-06 20:35 54.90929 12.30821 17008 ft 331 kts
2026-05-06 20:36 54.93181 12.31347 16632 ft 331 kts 11°
2026-05-06 20:36 54.95390 12.32646 16301 ft 331 kts 23°
2026-05-06 20:36 54.97371 12.34655 15964 ft 330 kts 33°
2026-05-06 20:36 54.99262 12.36898 15641 ft 328 kts 33°
2026-05-06 20:37 55.01142 12.39109 15328 ft 325 kts 32°
2026-05-06 20:37 55.02991 12.41267 15018 ft 323 kts 32°
2026-05-06 20:37 55.04859 12.43441 14725 ft 320 kts 32°
2026-05-06 20:37 55.06712 12.45596 14405 ft 318 kts 32°
2026-05-06 20:38 55.08553 12.47739 14096 ft 316 kts 32°
2026-05-06 20:38 55.10377 12.49868 13833 ft 313 kts 32°
2026-05-06 20:38 55.12181 12.51981 13511 ft 310 kts 32°
2026-05-06 20:38 55.13968 12.54074 13171 ft 308 kts 33°
2026-05-06 20:39 55.15744 12.56159 12852 ft 306 kts 32°
2026-05-06 20:39 55.17505 12.58230 12509 ft 304 kts 32°
2026-05-06 20:39 55.19258 12.60290 12174 ft 302 kts 33°
2026-05-06 20:39 55.20998 12.62341 11846 ft 300 kts 33°
2026-05-06 20:40 55.22741 12.64336 11505 ft 298 kts 27°
2026-05-06 20:40 55.24631 12.65758 11176 ft 295 kts 17°
2026-05-06 20:40 55.26582 12.66851 10842 ft 293 kts 17°
2026-05-06 20:40 55.28513 12.67949 10503 ft 291 kts 17°
2026-05-06 20:41 55.30437 12.69049 10181 ft 289 kts 18°
2026-05-06 20:41 55.32342 12.70142 9851 ft 287 kts 17°
2026-05-06 20:41 55.34235 12.71227 9494 ft 285 kts 18°
2026-05-06 20:41 55.36110 12.72299 9145 ft 282 kts 18°
2026-05-06 20:42 55.37974 12.73362 8777 ft 280 kts 18°
2026-05-06 20:42 55.39811 12.74410 8527 ft 273 kts 18°
2026-05-06 20:42 55.41587 12.75425 8390 ft 263 kts 18°
2026-05-06 20:42 55.43269 12.76391 8265 ft 252 kts 18°
2026-05-06 20:43 55.44909 12.77334 8129 ft 242 kts 19°
2026-05-06 20:43 55.46481 12.78236 7970 ft 233 kts 19°
2026-05-06 20:43 55.48008 12.79112 7697 ft 230 kts 19°
2026-05-06 20:43 55.49530 12.79986 7377 ft 229 kts 19°
2026-05-06 20:44 55.51041 12.80857 7069 ft 227 kts 19°
2026-05-06 20:44 55.52539 12.81722 6768 ft 225 kts 19°
2026-05-06 20:44 55.54023 12.82580 6467 ft 224 kts 19°
2026-05-06 20:44 55.55500 12.83435 6161 ft 222 kts 19°
2026-05-06 20:45 55.56949 12.84366 5828 ft 221 kts 22°
2026-05-06 20:45 55.58380 12.85388 5495 ft 220 kts 24°
2026-05-06 20:45 55.59795 12.86426 5162 ft 220 kts 24°
2026-05-06 20:45 55.61205 12.87460 4839 ft 219 kts 24°
2026-05-06 20:46 55.62565 12.88594 4514 ft 217 kts 33°
2026-05-06 20:46 55.63768 12.90198 4156 ft 216 kts 43°
2026-05-06 20:46 55.64897 12.91988 3823 ft 217 kts 43°
2026-05-06 20:46 55.66032 12.93766 3502 ft 217 kts 43°
2026-05-06 20:47 55.67168 12.95543 3178 ft 217 kts 43°
2026-05-06 20:47 55.68297 12.97307 3005 ft 215 kts 43°
2026-05-06 20:47 55.69422 12.99065 3008 ft 216 kts 44°
2026-05-06 20:47 55.70596 13.00707 3005 ft 218 kts 29°
2026-05-06 20:48 55.72095 13.01266 3004 ft 225 kts 360°
2026-05-06 20:48 55.73647 13.01237 2991 ft 221 kts 16°
2026-05-06 20:48 55.74875 13.02653 2998 ft 211 kts 59°
2026-05-06 20:48 55.75184 13.05105 3000 ft 208 kts 102°
2026-05-06 20:49 55.74467 13.07322 3015 ft 212 kts 133°
2026-05-06 20:49 55.73373 13.09034 3004 ft 213 kts 137°
2026-05-06 20:49 55.72229 13.10708 3001 ft 214 kts 142°
2026-05-06 20:49 55.70884 13.11916 2995 ft 217 kts 163°
2026-05-06 20:50 55.69375 13.11953 2997 ft 222 kts 193°
2026-05-06 20:50 55.68444 13.11185 2998 ft 226 kts 214°
2026-05-06 20:50 55.66991 13.08539 2991 ft 230 kts 242°
2026-05-06 20:50 55.66642 13.05786 3002 ft 232 kts 275°
2026-05-06 20:51 55.67161 13.03129 3001 ft 230 kts 308°
2026-05-06 20:51 55.67924 13.01807 3002 ft 227 kts 330°
2026-05-06 20:51 55.69387 13.00946 3003 ft 221 kts
2026-05-06 20:51 55.70852 13.01502 3002 ft 215 kts 31°
2026-05-06 20:52 55.72031 13.03083 3007 ft 213 kts 45°
2026-05-06 20:52 55.72843 13.05218 2999 ft 209 kts 75°
2026-05-06 20:52 55.72887 13.07760 3001 ft 209 kts 105°
2026-05-06 20:52 55.72166 13.09972 3002 ft 211 kts 135°
2026-05-06 20:53 55.70863 13.11186 3002 ft 217 kts 167°
2026-05-06 20:53 55.69365 13.10925 3001 ft 223 kts 201°
2026-05-06 20:53 55.68179 13.09098 3003 ft 234 kts 240°
2026-05-06 20:53 55.67854 13.06299 3007 ft 237 kts 275°
2026-05-06 20:54 55.68297 13.03575 2994 ft 224 kts 302°
2026-05-06 20:54 55.69282 13.01586 2998 ft 210 kts 327°
2026-05-06 20:54 55.70479 13.00164 3000 ft 206 kts 329°
2026-05-06 20:54 55.71667 12.98761 2995 ft 204 kts 328°
2026-05-06 20:55 55.72847 12.97363 3000 ft 204 kts 328°
2026-05-06 20:55 55.74032 12.95962 3001 ft 204 kts 328°
2026-05-06 20:55 55.75216 12.94561 3002 ft 204 kts 327°
2026-05-06 20:55 55.76199 12.92765 3003 ft 205 kts 297°
2026-05-06 20:56 55.76513 12.90333 3010 ft 204 kts 264°
2026-05-06 20:56 55.76073 12.88019 3004 ft 201 kts 232°
2026-05-06 20:56 55.75077 12.86268 3007 ft 199 kts 219°
2026-05-06 20:56 55.74046 12.84668 3000 ft 197 kts 219°
2026-05-06 20:57 55.73042 12.83102 2835 ft 188 kts 219°
2026-05-06 20:57 55.72071 12.81588 2613 ft 184 kts 219°
2026-05-06 20:57 55.71120 12.80104 2367 ft 181 kts 219°
2026-05-06 20:57 55.70180 12.78639 2143 ft 176 kts 219°
2026-05-06 20:58 55.69273 12.77225 1885 ft 171 kts 218°
2026-05-06 20:58 55.68400 12.75864 1648 ft 161 kts 218°
2026-05-06 20:58 55.67578 12.74585 1430 ft 153 kts 219°
2026-05-06 20:58 55.66807 12.73385 1230 ft 144 kts 218°
2026-05-06 20:59 55.66059 12.72223 1025 ft 142 kts 219°
2026-05-06 20:59 55.65323 12.71077 812 ft 140 kts 218°
2026-05-06 20:59 55.64595 12.69951 650 ft 138 kts 219°
2026-05-06 20:59 55.63881 12.68823 415 ft 137 kts 220°
2026-05-06 21:00 55.63177 12.67706 269 ft 135 kts 218°
2026-05-06 21:00 55.62467 12.66639 65 ft 133 kts 219°
2026-05-06 21:00 55.61815 12.65636 25 ft 105 kts 222°
2026-05-06 21:00 55.61387 12.64975 28 ft 66 kts 220°
2026-05-06 21:01 55.61067 12.64475 24 ft 57 kts 220°
2026-05-06 21:01 55.60786 12.64042 26 ft 48 kts 221°
2026-05-06 21:01 55.60705 12.63771 26 ft 24 kts 294°
2026-05-06 21:01 55.60762 12.63650 24 ft 0 kts 311°
2026-05-06 21:02 55.60782 12.63613 24 ft 11 kts 318°
2026-05-06 21:02 55.60877 12.63644 24 ft 19 kts 32°
2026-05-06 21:03 55.61013 12.63800 24 ft 27 kts 33°
2026-05-06 21:03 55.61193 12.64012 24 ft 35 kts 32°
2026-05-06 21:03 55.61412 12.64263 24 ft 39 kts 33°
2026-05-06 21:03 55.61591 12.64467 24 ft 21 kts 33°
2026-05-06 21:04 55.61699 12.64571 24 ft 16 kts
2026-05-06 21:04 55.61806 12.64538 24 ft 15 kts 348°
2026-05-06 21:04 55.61901 12.64509 26 ft 13 kts 350°
2026-05-06 21:04 55.61985 12.64481 24 ft 12 kts 349°
2026-05-06 21:05 55.62062 12.64455 24 ft 11 kts 349°
2026-05-06 21:05 55.62107 12.64441 25 ft 0 kts 349°
2026-05-06 21:06 55.62108 12.64440 25 ft 3 kts 349°
2026-05-06 21:06 55.62188 12.64414 22 ft 19 kts 349°
2026-05-06 21:06 55.62336 12.64421 23 ft 21 kts 14°
2026-05-06 21:06 55.62469 12.64485 24 ft 14 kts
2026-05-06 21:07 55.62532 12.64387 24 ft 12 kts 302°
2026-05-06 21:07 55.62574 12.64270 24 ft 11 kts 303°
2026-05-06 21:07 55.62611 12.64168 24 ft 9 kts 304°
2026-05-06 21:07 55.62646 12.64079 24 ft 8 kts 304°
2026-05-06 21:08 55.62679 12.64050 24 ft 4 kts 16°
2026-05-06 21:08 55.62703 12.64072 24 ft 4 kts 31°
2026-05-06 21:08 55.62719 12.64090 27 ft 2 kts 33°
2026-05-06 21:08 55.62723 12.64094 26 ft 0 kts 33°